Погода в Красном

Украина / Полтавская область     49°04′50″N   34°15′37″E
темп.,
°C
ветер,
м/с
пор.,
м/с
влажн.,
%
обл.,
%
осадки,
мм/ч
давл.,
гПа
погр.,
м
24 февраля, ср
ср2423:00−8вюв5876100 0.0 1041427
02:00−9вюв4679100 0.1 1041409
05:00−8юв4674100 0.1 1040395
08:00−9юв4692100 0.6 1040336
11:00−6ю4691100 0.5 1039433
14:00−3ю5788100 1.2 1037546
17:00−4ююз387476 0.0 1036275
20:00−5ю487787 0.0 1035225
25 февраля, чт
чт2523:00−3ююз4987100 0.0 1035383
02:00−2ююз4892100 0.0 1034297
05:00−2юз5993100 0.0 1033285
08:00−1юз4894100 0.1 1032271
11:00+1зюз5998100 0.2 1031277
14:00+2зюз49100100 0.3 1030225
17:00+2з4899100 0.0 1028191
20:00+2з4699100 0.1 1028122
26 февраля, пт
пт2623:00+3з5999100 0.2 1028203
02:00+2зсз4999100 0.2 1028187
05:00+2зсз469999 0.0 1027139
08:00+2з489993 0.0 1026150
11:00+6зюз599252 0.0 1025370
14:00+8зюз6108839 0.0 1023488
17:00+4з599566 0.0 1021314
20:00+3з499883 0.0 1020259
27 февраля, сб
сб2723:00+3з3698100 0.0 1019134
02:00+3зсз4998100 0.1 1019249
05:00+2з4997100 0.0 1017205
08:00+2з41095100 0.0 1016287
11:00+6зсз588393 0.0 1016692
14:00+5зсз587697 0.1 10151005
17:00+3сз51085100 0.1 1016422
20:00+2сз51090100 0.1 1017461
28 февраля, вс
вс2823:00+1сз499298 0.0 1017392
02:00+1ссз489699 0.1 1018446
05:00+1сз5996100 0.1 1018476
08:000ссз61095100 0.2 1019598
11:00+3ссз797194 0.2 10201199
14:00+2ссз796897 0.3 10201287
17:00+1ссз61077100 0.1 10211012
20:00−1ссз61085100 0.3 1024725